Location: Newark
(40.9833°N, 0.0333°W)
Time: 21:17:38
(UTC+00:00)

Vanguard 2 Rocket - Pass Details

Date: 28 October 2020
Orbit: 553 x 3326 km, 32.9° (Epoch: 29 November)

Event Time Altitude Azimuth Distance (km) Brightness Sun altitude
Rises 20:38:46 0° 258° (WSW) 2,865 10.1 -41.3°
Enters shadow 20:39:53 - 253° (WSW) 2,444 9.6 -41.5°
Reaches altitude 10° 20:40:53 10° 248° (WSW) 2,095 - -41.7°
Maximum altitude 20:45:11 35° 182° (S) 1,343 - -42.5°
Drops below altitude 10° 20:51:39 10° 119° (ESE) 3,178 - -43.6°
Sets 20:55:37 0° 112° (ESE) 4,617 - -44.3°
